sat.trackr.live / text

‹ back to catalog

STARLINK-5464

NORAD 54758 · 2022-175A

PAYLOAD ACTIVE UNKNOWN

§ Identity

Operator
Country
US
Launch date
2022-12-17
Launch site
AFETR
Launch vehicle
Mass (kg)
RCS (m²)

Purposes: comms

External: N2YO · Heavens-Above · Gunter

§ Orbital elements

Epoch: 2026-09-20T22:00:03.000096Z

Period
94.01 min
Inclination
53.1566°
Eccentricity
0.0001420
Mean motion
15.31709174 rev/d
Perigee alt
469.7 km
Apogee alt
471.7 km
Semi-major
6,848.8 km
B*
7.2117e-4
RAAN
230.8487°
Arg perigee
96.2258°
Mean anomaly
200.1775°
Rev number
581

§ Raw data

STARLINK-54641 54758U 22175A   26263.91670139  .00022087  00000+0  72117-3 0  99902 54758  53.1566 230.8487 0001420  96.2258 200.1775 15.31709174  5812

JSON: /api/v1/satellites/54758 · /tle

For live sub-satellite position, see the globe view (requires WebGL).

§ Visibility from observer

Set your observer location to see the next 7 days of passes ≥ 10°. The values pass through the URL so the page stays shareable.

No JS? Fill the form by hand. The geolocation button needs JavaScript.